Other Public Products
Issued by NWS Grand Forks, ND

Home | Current Version | Previous Version | Graphics & Text | Print | Product List | Glossary On
Versions: 1 2 3 4 5 6 7 8 9 10 11 12 13 14 15 16 17 18 19 20 21 22 23 24 25 26 27 28 29 30 31 32 33 34 35 36 37 38 39 40 41 42 43 44 45 46 47 48 49 50
000
FPUS83 KFGF 200010
OPUFGF
PRAIRIE TO PINES WEATHER ROUNDUP
NATIONAL WEATHER SERVICE EASTERN NORTH DAKOTA/GRAND FORKS ND
700 PM CDT WED JUL 19 2017

 **SATELLITE DATA USED TO AUGMENT SKY COVER AT AUTOMATED STATIONS**
 *****  WEATHER ACROSS EASTERN NORTH DAKOTA  *****

CITY           SKY/WX    TMP DP  RH WIND       PRES   REMARKS
GRAND FORKS    FAIR      84  67  56 SW12      29.84F
6HR MIN TEMP:  75; 6HR MAX TEMP:  84;

GRAND FORKS AF FAIR      84  65  53 W7        29.86S
GRAND CITY NWS NOT AVBL
BUXTON         NOT AVBL
DEVILS LAKE    FAIR      84  65  52 NW9       29.89S
6HR MIN TEMP:  71; 6HR MAX TEMP:  85;

FARGO          FAIR      83  66  56 W8        29.88F
6HR MIN TEMP:  71; 6HR MAX TEMP:  83;

WAHPETON ARPT  FAIR      79  64  61 SE3       29.91S
$$

 *****  WEATHER ACROSS CENTRAL AND WESTERN NORTH DAKOTA  *****

CITY           SKY/WX    TMP DP  RH WIND       PRES   REMARKS
JAMESTOWN      FAIR      84  62  47 W10       29.90F
6HR MIN TEMP:  77; 6HR MAX TEMP:  85;

BISMARCK       FAIR      88  58  36 W7        29.94S
6HR MIN TEMP:  78; 6HR MAX TEMP:  89; 6HR PCP: TRACE;

MINOT          FAIR      87  56  34 NW12      29.90R
6HR MIN TEMP:  78; 6HR MAX TEMP:  93;

MINOT AFB      FAIR      85  58  38 N10       29.89S
6HR MIN TEMP:  76; 6HR MAX TEMP:  89;

GARRISON         N/A     88  52  29 NW9G22    29.91F
6HR MIN TEMP:  77; 6HR MAX TEMP:  89; 6HR PCP:  0.01;

WILLISTON      FAIR      91  50  24 SW7       29.90S
6HR MIN TEMP:  82; 6HR MAX TEMP:  93;

DICKINSON      FAIR      86  53  32 S8        29.97F
6HR MIN TEMP:  73; 6HR MAX TEMP:  86;

HETTINGER      FAIR      85  53  33 E5        30.00F
6HR MIN TEMP:  79; 6HR MAX TEMP:  87;

$$

 *****  OTHER OBSERVATIONS NORTHEAST NORTH DAKOTA  *****

CITY           SKY/WX    TMP DP  RH WIND       PRES   REMARKS
WALHALLA       NOT AVBL
LANGDON        FAIR      75  70  83 W10       29.90R
CAVALIER       FAIR      79  68  69 W7        29.84S
GRAFTON        FAIR      82  66  57 W12       29.85S
CANDO          NOT AVBL
FORT TOTTEN      N/A     86  62  43 W6        29.95S
ROLLA            N/A     77  66  69 NW8       29.92S
RUGBY          NOT AVBL
 ***** THE ABOVE OBSERVATIONS ARE NON NWS ARE NOT QUALITY
        CONTROLLED AND MAY MIS-REPORT RAIN FOR SNOW...
$$

 *****  OTHER OBSERVATIONS SOUTHEAST NORTH DAKOTA *****

CITY           SKY/WX    TMP DP  RH WIND       PRES   REMARKS
COOPERSTOWN    FAIR      82  66  57 W9        29.90F
VALLEY CITY    FAIR      82  64  54 SW9       29.92F
OAKES          NOT AVBL
GWINNER        CLEAR     82  70  65 CALM      29.91R
SHEYENNE NWR     N/A     85  68  56 NW6       29.95S
BUFFALO        NOT AVBL
WYNDMERE       NOT AVBL
 ***** THE ABOVE OBSERVATIONS ARE NON NWS ARE NOT QUALITY
       CONTROLLED AND MAY MIS-REPORT RAIN FOR SNOW...
$$

  *****  WEATHER ACROSS NORTHERN MINNESOTA  *****

CITY           SKY/WX    TMP DP  RH WIND       PRES   REMARKS
FLAG ISLAND    FAIR      72  64  78 S3        29.85S
WARROAD        FAIR      75  64  69 SW8       29.86F
ROSEAU         FAIR      77  66  69 SW14      29.86S
HALLOCK        FAIR      79  66  65 SW6       29.84S
THF RVR FALLS  FAIR      78  66  66 SW9       29.88F
6HR MIN TEMP:  72; 6HR MAX TEMP:  79;

HALSTAD        NOT AVBL
FOSSTON        FAIR      79  63  57 SW10      29.90F
BAUDETTE       FAIR      74  62  66 S5        29.86F
6HR MIN TEMP:  69; 6HR MAX TEMP:  75; 6HR PCP: TRACE;

WASKISH        PTSUNNY   75  63  64 CALM      29.88F
CROOKSTON      FAIR      81  66  61 SW8       29.87F
$$
  *****  WEATHER ACROSS CENTRAL AND WEST MINNESOTA  *****

CITY           SKY/WX    TMP DP  RH WIND       PRES   REMARKS
BEMIDJI        FAIR      78  61  55 SW8       29.91S
PARK RAPIDS    FAIR      79  60  52 W8        29.93S
6HR MIN TEMP:  72; 6HR MAX TEMP:  81; 6HR PCP: TRACE;

WADENA         FAIR      77  64  65 CALM      29.93R
DETROIT LAKES  FAIR      77  64  65 W5        29.94S
MOORHEAD       FAIR      81  64  57 S5        29.89F
FERGUS FALLS   FAIR      79  66  65 SW5       29.91R
ELBOW LAKE     MOCLDY    75  66  74 CALM      29.93R
6HR MIN TEMP:  65; 6HR MAX TEMP:  77; 6HR PCP:  0.01;

MORRIS MN      PTSUNNY   75  68  78 CALM      29.91R
STAPLES        FAIR      75  63  64 SW5       29.94R
WHEATON        FAIR      77  68  73 SE5       29.91R
$$
  *****  WEATHER ELSEWHERE ACROSS MINNESOTA  *****

CITY           SKY/WX    TMP DP  RH WIND       PRES   REMARKS
DULUTH         FAIR      75  61  61 SE6       29.94S
6HR MIN TEMP:  73; 6HR MAX TEMP:  77;

INTRNTL FALLS  FAIR      71  59  65 VRB5      29.89F
6HR MIN TEMP:  68; 6HR MAX TEMP:  75; 6HR PCP: TRACE;

ELY            FAIR      73  57  56 CALM      29.95R
CLOQUET        FAIR      77  55  47 S5        29.94S
BRAINERD       FAIR      75  60  59 S7        29.93S
6HR MIN TEMP:  69; 6HR MAX TEMP:  78; 6HR PCP: TRACE;

HIBBING        PTSUNNY   75  60  59 VRB5      29.94R
6HR MIN TEMP:  71; 6HR MAX TEMP:  75; 6HR PCP: TRACE;

ALEXANDRIA     PTSUNNY   76  65  68 CALM      29.95R
6HR MIN TEMP:  67; 6HR MAX TEMP:  77;

SAINT CLOUD    FAIR      75  63  66 E7        29.92R
6HR MIN TEMP:  68; 6HR MAX TEMP:  78; 6HR PCP:  0.06;

MINNEAPOLIS    PTSUNNY   71  65  81 S12       29.93R
6HR MIN TEMP:  67; 6HR MAX TEMP:  83; 6HR PCP:  0.43;

$$

  *****  WEATHER ACROSS SOUTH DAKOTA  *****

CITY           SKY/WX    TMP DP  RH WIND       PRES   REMARKS
SIOUX FALLS    PTSUNNY   81  75  82 E10       29.86F
6HR MIN TEMP:  76; 6HR MAX TEMP:  85;

BROOKINGS      FAIR      82  72  71 SE10      29.89F
WATERTOWN      FAIR      77  70  79 SE7       29.90R
6HR MIN TEMP:  68; 6HR MAX TEMP:  77; 6HR PCP:  0.01;

HURON          FAIR      88  74  63 SE8       29.83F HX  96
6HR MIN TEMP:  72; 6HR MAX TEMP:  89;

SISSETON         N/A     77  70  79 S6        29.88R
ABERDEEN       FAIR      81  71  71 CALM      29.89R
6HR MIN TEMP:  70; 6HR MAX TEMP:  82;

MITCHELL       FAIR      84  76  76 E10       29.83F HX  93
PIERRE         FAIR      92  69  47 NE14      29.85R HX  97
6HR MIN TEMP:  84; 6HR MAX TEMP:  95;

MOBRIDGE       FAIR      87  68  52 N8        29.90S HX  90
RAPID CITY     FAIR      88  56  33 NE17G31   29.98F
6HR MIN TEMP:  87; 6HR MAX TEMP:  96;

$$

  *****  SOME WEATHER IN NEARBY STATES *****

CITY           SKY/WX    TMP DP  RH WIND       PRES   REMARKS
GLASGOW MT     FAIR      94  40  15 N7        29.86F HX  90
6HR MIN TEMP:  86; 6HR MAX TEMP:  94;

GREAT FALLS MT FAIR      91  29  11 E7        29.96F
6HR MIN TEMP:  85; 6HR MAX TEMP:  92;

CHEYENNE WY    FAIR      86  46  24 E13G20    30.15R
6HR MIN TEMP:  86; 6HR MAX TEMP:  98; 6HR PCP: TRACE;

SCOTTSBLUFF NE FAIR     102  39  11 E5        29.93F HX  97
6HR MIN TEMP:  96; 6HR MAX TEMP: 104;

OMAHA NE       FAIR      95  78  58 S15       29.91R HX 111
6HR MIN TEMP:  91; 6HR MAX TEMP:  96;

DES MOINES IA  PTSUNNY   91  72  53 S13       29.95S HX  98
6HR MIN TEMP:  91; 6HR MAX TEMP:  98;

DAVENPORT IA   FAIR      87  72  60 S8        30.03S HX  93
6HR MIN TEMP:  86; 6HR MAX TEMP:  90;

CHICAGO IL     PTSUNNY   82  68  62 NE7       30.05S
6HR MIN TEMP:  82; 6HR MAX TEMP:  88;

EAU CLAIRE WI  FAIR      69  63  81 SE5       29.88S
6HR MIN TEMP:  68; 6HR MAX TEMP:  84; 6HR PCP:  0.06;

LA CROSSE WI   TSTM      72  68  87 E29G45    29.82F
6HR MIN TEMP:  72; 6HR MAX TEMP:  88; 6HR PCP:  0.62;

$$

  *****  SOME NATIONAL WEATHER *****

CITY           SKY/WX    TMP DP  RH WIND       PRES   REMARKS
LA GUARDIA NY  FAIR      92  66  42 W10       29.94S HX  94



USA.gov is the U.S. government's official web portal to all federal, state and local government web resources and services.